Hourly Data Report for November 24, 2014

All times are specified in Local Standard Time (LST). Add 1 hour to adjust for Daylight Saving Time where and when it is observed.

Metadata including Station Name, Province, Latitude, Longitude, Elevation, Climate ID, WMO ID, TC ID
CHATHAM KENT
ONTARIO
Latitude: 42°18'21.000" N Longitude: 82°04'57.000" W Elevation: 196.60 m
Climate ID: 6131414 WMO ID: TC ID: YCK
Hourly Data Report for November 23, 2014
Temp Definition
°C

Dew Point Temp Definition
°C

Rel Hum Definition
%

Wind Dir Definition
10's deg
Wind Spd Definition
km/h

Visibility Definition
km

Stn Press Definition
kPa

Hmdx Definition

Wind Chill Definition

Weather Definition

00:00 Legend Double Dagger 7.3 5.0 85 22 26 16.1 99.16 LegendNANA
01:00 Legend Double Dagger 7.5 4.6 82 22 24 16.1 99.15 LegendNANA
02:00 Legend Double Dagger 7.4 4.5 82 22 28 16.1 99.13 LegendNANA
03:00 Legend Double Dagger 7.6 4.5 80 22 24 16.1 99.16 LegendNANA
04:00 Legend Double Dagger 7.5 4.1 79 23 22 16.1 99.14 LegendNANA
05:00 Legend Double Dagger 7.9 4.0 76 22 22 16.1 99.12 LegendNANA
06:00 Legend Double Dagger 6.9 5.2 89 22 28 16.1 99.14 Rain
07:00 Legend Double Dagger 6.6 5.9 95 21 28 16.1 99.15 Rain
08:00 Legend Double Dagger 7.1 6.2 94 20 26 16.1 99.10 LegendNANA
09:00 Legend Double Dagger 7.4 6.5 94 19 22 16.1 99.14 Rain
10:00 Legend Double Dagger 7.3 6.6 95 18 22 16.1 99.18 Rain
11:00 Legend Double Dagger 7.7 6.8 94 18 21 16.1 99.10 Rain
12:00 Legend Double Dagger 8.0 6.9 93 18 24 16.1 98.98 LegendNANA
13:00 Legend Double Dagger 8.7 6.6 87 16 24 16.1 98.85 LegendNANA
14:00 Legend Double Dagger 9.5 6.5 82 17 24 16.1 98.71 LegendNANA
15:00 Legend Double Dagger 9.9 6.1 77 14 26 16.1 98.51 LegendNANA
16:00 Legend Double Dagger 10.0 5.8 75 14 30 16.1 98.35 LegendNANA
17:00 Legend Double Dagger 10.2 6.2 76 14 30 16.1 98.29 LegendNANA
18:00 Legend Double Dagger 10.8 6.0 72 14 32 16.1 98.14 LegendNANA
19:00 Legend Double Dagger 10.8 6.2 73 13 35 16.1 97.98 LegendNANA
20:00 Legend Double Dagger 12.0 7.2 72 12 35 16.1 97.80 LegendNANA
21:00 Legend Double Dagger 10.2 7.6 84 12 35 16.1 97.66 Rain
22:00 Legend Double Dagger 9.6 8.8 95 13 34 6.4 97.45 Rain,Fog
23:00 Legend Double Dagger 9.3 8.9 97 13 34 16.1 97.16 Rain

Notes on Data Quality.

Legend
  • E = Estimated
  • M = Missing
  • NA = Not Available
  • ‡ = Partner data that is not subject to review by the National Climate Archives